EDDLEDLW

Guest
Details From EDDL - Duesseldorf
To EDLW - Dortmund-Wickede
Flight Number -
Tags generated
Created
Modified
Stats Distance 35 nm / 64 km
Max Altitude 2,900 ft / 884 m
Waypoints 3
Social Downloads 2
Likes 0
Share VATSIM

Download

Looking for another format? Having issues loading an existing format? Contact us
Advertisement - Login to hide

Notes

Basic altitude profile: - Ascent Rate: 2500ft/min - Ascent Speed: 250kts - Cruise Altitude: 35000ft - Cruise Speed: 420kts - Descent Rate: 1500ft/min - Descent Speed: 250kts Options: - Use NATs: yes - Use PACOTS: yes - Use low airways: yes - Use high airways: no

Route

EDDL ABAMI EDLW

ID Type Via Altitude Latitude Longitude Leg Dist Tot Dist Heading (true) Name
O EDDL APT - 0 ft / 0 m 51.28942˚ 6.76664˚ - 0 nm - Duesseldorf
ABAMI FIX - 2,900 ft / 884 m 51.42500˚ 7.28056˚ 20 nm 20 nm 67° / 67° -
O EDLW APT - 0 ft / 0 m 51.51911˚ 7.61445˚ 13 nm 34 nm 66° / 66° Dortmund-Wickede

Altitude Profile

Advertisement - Login to hide

EDDL

Details ICAO EDDL (DUS)
Name Duesseldorf
Region Germany - Civil
Timezone Europe/Berlin (UTC+2.0)
Stats Elevation 146 ft / 45 m (AMSL)
Location 51.289419° 6.766637°
Runways 2
Magnetic Variation 1.867° E

METAR

EDDL 261020Z 08008KT 040V110 9999 FEW045 BKN300 26/14 Q1020 NOSIG

Decode

TAF

TAF EDDL 260500Z 2606/2712 VRB03KT CAVOK BECMG 2607/2609 07008KT BECMG 2617/2620 VRB03KT

Decode

Departure Runways

ID Width Length Bearing (true) Bearing (mag) Surface Threshold Offset Overrun Length
05L 148 ft / 45 m 8,895 ft / 2,711 m 52.72° 50.85° Concrete 994 ft / 303 m 906 ft / 276 m
05R 148 ft / 45 m 9,858 ft / 3,005 m 52.68° 50.81° Concrete 984 ft / 300 m 659 ft / 201 m
23L 148 ft / 45 m 9,858 ft / 3,005 m 232.71° 230.84° Concrete 984 ft / 300 m 702 ft / 214 m
23R 148 ft / 45 m 8,895 ft / 2,711 m 232.75° 230.88° Concrete 971 ft / 296 m 928 ft / 283 m

EDLW

Details ICAO EDLW (DTM)
Name Dortmund-Wickede
Region Germany - Civil
Timezone Europe/Berlin (UTC+2.0)
Stats Elevation 425 ft / 130 m (AMSL)
Location 51.519107° 7.614447°
Runways 1
Magnetic Variation 2.119° E

METAR

EDLW 261020Z 09007KT 020V140 CAVOK 26/14 Q1020

Decode

TAF

TAF EDLW 260500Z 2606/2706 VRB03KT CAVOK BECMG 2607/2609 08009KT BECMG 2618/2621 09004KT

Decode

Destination Runways

ID Width Length Bearing (true) Bearing (mag) Surface Threshold Offset Overrun Length
06 148 ft / 45 m 6,546 ft / 1,995 m 60.50° 58.38° Asphalt 984 ft / 300 m 197 ft / 60 m
24 148 ft / 45 m 6,546 ft / 1,995 m 240.52° 238.40° Asphalt 984 ft / 300 m 197 ft / 60 m

Approach Navaids

Runway Type Ident Frequency Range Bearing (true) Bearing (mag) Slope Elevation
06 Localiser IDWE 109.15 MHz 18 nm / 33 km 60.52° 58.41° - 425 ft / 130 m (AMSL)
06 Glidescope IDWE 109.15 MHz 10 nm / 19 km 60.51° 58.39° 3.00° 425 ft / 130 m (AMSL)
24 Localiser IDWW 110.30 MHz 18 nm / 33 km 240.49° 238.37° - 425 ft / 130 m (AMSL)
24 Glidescope IDWW 110.30 MHz 10 nm / 19 km 240.51° 238.39° 3.00° 425 ft / 130 m (AMSL)

Popular Alternatives